Погода в Матышеве

Россия / Волгоградская область     50°49′24″N   44°11′44″E
темп.,
°C
ветер,
м/с
пор.,
м/с
влажн.,
%
обл.,
%
осадки,
мм/ч
давл.,
гПа
погр.,
м
7 мая, пт
пт700:00+11ююв41259100 0.0 1015248
03:00+12ююв51355100 0.0 1014329
06:00+11ююв61358100 0.0 1013353
09:00+16ю81151100 0.0 1013862
12:00+18ююз101244100 0.0 10131997
15:00+17ююз81056100 0.2 10131451
18:00+12ссз349019 3.1 1014223
21:00+10ссз489463 3.1 1016337
8 мая, сб
сб800:00+8ссз24940 0.0 101780
03:00+6сз339531 0.0 101755
06:00+7ссз23910 0.0 1017139
09:00+12зюз2269100 0.0 1016609
12:00+16юз3446100 0.0 10151175
15:00+18юз4538100 0.0 10141296
18:00+17ююв2355100 0.0 101354
21:00+14ююв41161100 0.0 1012195
9 мая, вс
вс900:00+12ююв41168100 0.0 1011198
03:00+11ю486990 0.2 1011149
06:00+12зюз1384100 0.8 1011128
09:00+13с2289100 2.6 1010283
12:00+12св2390100 3.4 1011214
15:00+9с9119199 3.4 1012417
18:00+8ссз8128797 0.0 1013504
21:00+7с8148999 0.0 1014514
10 мая, пн
пн1000:00+7с81492100 0.6 1014500
03:00+8с91793100 1.4 1013530
06:00+9св91795100 1.9 1014516
09:00+12ссв91490100 2.9 1015345
12:00+14ссв111983100 0.1 1015832
15:00+19св101466100 2.2 10141006
18:00+17св101777100 5.0 1015516
21:00+15св91688100 8.8 1016512
11 мая, вт
вт1100:00+14св81688100 0.9 1016683
03:00+12св101887100 0.9 1016666
06:00+12в61192100 0.9 1018860
09:00+10юв5887100 5.8 1022636
12:00+15в46550 0.0 10221100
15:00+17ююв344725 0.0 10221628
18:00+15юз3564100 0.0 1022169
21:00+11зюз5985100 1.5 1021285